EW4713 Weather Reports


time (UTC)temp
C
wind
direction
speed
KPH
gust
KPH
rain 1hr
cm
rain 24hr
cm
rain mn
cm
humidity
%
barometer
mb
20260904013929 17 285 0.0 9.7 0.00 1.98 1.98 99 1005.1
20260904013431 17 257 3.2 9.7 0.00 1.98 1.98 99 1005.4
20260904012929 17 252 3.2 9.7 0.00 1.98 1.98 99 1005.4
20260904012430 17 243 3.2 11.3 0.00 1.98 1.98 99 1005.4
20260904011930 17 277 6.4 11.3 0.00 1.98 1.98 99 1005.7
20260904011429 17 273 4.8 9.7 0.00 1.98 1.98 99 1005.7
20260904010929 17 270 1.6 9.7 0.00 1.98 1.98 99 1005.7
20260904010429 17 289 1.6 6.4 0.00 1.98 1.98 99 1005.7
20260904005929 17 281 3.2 4.8 0.00 1.98 1.98 99 1005.7
20260904005430 17 297 1.6 4.8 0.00 1.98 1.98 99 1005.7
20260904004929 17 331 0.0 9.7 0.00 1.98 1.98 99 1005.7
20260904004431 17 139 3.2 9.7 0.00 1.98 1.98 99 1005.4
20260904003929 17 268 8.0 9.7 0.00 1.98 1.98 99 1005.1
20260904003430 17 299 3.2 6.4 0.00 1.98 1.98 99 1005.1
20260904002929 17 335 4.8 6.4 0.00 1.98 1.98 99 1005.7
20260904002429 17 289 1.6 4.8 0.00 1.98 1.98 99 1006.1
20260904001928 17 229 0.0 4.8 0.00 1.98 1.98 99 1005.7
20260904001429 17 285 1.6 3.2 0.00 1.98 1.98 99 1006.1
20260904000928 18 281 3.2 3.2 0.00 1.98 1.98 99 1005.7
20260904000427 18 331 3.2 3.2 0.00 1.98 1.98 99 1005.7
20260903235926 18 249 0.0 4.8 0.00 1.98 1.98 99 1005.7
20260903235428 18 246 0.0 4.8 0.00 1.98 1.98 99 1005.7
20260903234927 18 334 1.6 3.2 0.00 1.98 1.98 99 1005.7
20260903234431 18 77 0.0 4.8 0.03 1.98 1.98 99 1005.7
20260903233926 18 270 1.6 4.8 0.03 1.98 1.98 99 1005.7
20260903233425 18 337 0.0 3.2 0.03 1.98 1.98 99 1006.1
20260903232925 18 0 0.0 3.2 0.03 1.98 1.98 99 1006.1
20260903232426 18 63 0.0 6.4 0.05 1.98 1.98 99 1006.5
20260903231924 18 180 0.0 6.4 0.13 1.98 1.98 99 1005.4
20260903231426 18 295 3.2 3.2 0.33 1.98 1.98 99 1005.1
20260903230923 18 99 0.0 4.8 0.33 1.98 1.98 99 1006.1
20260903230425 18 90 1.6 8.0 0.33 1.98 1.98 99 1005.7
20260903225923 18 270 0.0 8.0 0.36 1.98 1.98 99 1005.1
20260903225425 18 243 0.0 9.7 0.48 1.98 1.98 99 1004.7
20260903224923 18 227 0.0 9.7 0.76 1.98 1.96 99 1005.1
20260903224423 18 267 0.0 8.0 1.63 1.96 1.96 99 1004.4
20260903223922 18 69 4.8 8.0 1.96 1.96 1.96 99 1004.0
20260903223421 18 265 3.2 12.9 1.96 1.96 1.96 99 1004.0
20260903222922 18 23 0.0 12.9 1.96 1.96 1.96 99 1004.4
20260903222423 18 276 1.6 9.7 1.93 1.93 1.93 99 1004.0
20260903221921 18 345 3.2 9.7 1.80 1.80 1.78 99 1005.1
20260903221422 18 180 0.0 8.0 1.65 1.65 1.65 99 1006.9
20260903220420 18 98 1.6 6.4 1.65 1.65 1.65 99 1006.9
20260903215919 18 130 3.2 11.3 1.63 1.63 1.60 99 1006.9
20260903215421 18 14 0.0 12.9 1.50 1.50 1.47 98 1006.9
20260903214919 18 23 3.2 12.9 1.22 1.22 0.89 97 1007.2
20260903214420 18 159 3.2 17.7 0.33 0.33 0.15 93 1007.2
20260903213918 22 188 0.0 17.7 0.00 0.00 0.00 82 1007.2
20260903213403 24 143 3.2 6.4 0.00 0.00 0.00 74 1006.5
20260903212901 24 90 0.0 8.0 0.00 0.00 0.00 75 1004.7
20260903212403 25 106 0.0 16.1 0.00 0.00 0.00 73 1004.0
20260903211900 25 270 3.2 16.1 0.00 0.00 0.00 72 1003.6
20260903211403 25 246 8.0 16.1 0.00 0.00 0.00 70 1004.0
20260903205901 25 338 4.8 14.5 0.00 0.00 0.00 71 1004.0
20260903205401 25 304 6.4 14.5 0.00 0.00 0.00 69 1004.4
20260903204901 25 270 3.2 14.5 0.00 0.00 0.00 69 1004.7
20260903204401 26 322 8.0 17.7 0.00 0.00 0.00 68 1004.4
20260903203901 26 270 3.2 17.7 0.00 0.00 0.00 68 1004.4
20260903203401 26 233 3.2 17.7 0.00 0.00 0.00 69 1004.0
20260903202902 26 266 3.2 17.7 0.00 0.00 0.00 67 1004.4
20260903202401 26 294 8.0 11.3 0.00 0.00 0.00 67 1004.4
20260903201902 26 243 3.2 12.9 0.00 0.00 0.00 65 1004.7
20260903201400 27 278 0.0 14.5 0.00 0.00 0.00 66 1004.4
20260903200901 26 247 6.4 14.5 0.00 0.00 0.00 67 1005.1
20260903200403 26 241 4.8 8.0 0.00 0.00 0.00 66 1004.7
20260903195901 26 334 6.4 8.0 0.00 0.00 0.00 66 1005.1
20260903195400 26 248 3.2 9.7 0.00 0.00 0.00 66 1005.1
20260903194901 26 255 3.2 12.9 0.00 0.00 0.00 67 1005.1
20260903193901 26 288 6.4 14.5 0.00 0.00 0.00 66 1005.4
20260903193401 27 275 6.4 14.5 0.00 0.00 0.00 65 1005.1
20260903192901 27 313 4.8 14.5 0.00 0.00 0.00 66 1005.1
20260903191902 27 315 3.2 11.3 0.00 0.00 0.00 66 1005.4
20260903191400 26 289 3.2 11.3 0.00 0.00 0.00 66 1005.4
20260903190901 26 286 4.8 9.7 0.00 0.00 0.00 67 1005.7
20260903190402 26 0 3.2 11.3 0.00 0.00 0.00 67 1005.7
20260903185901 26 205 4.8 11.3 0.00 0.00 0.00 67 1006.1
20260903185402 26 267 4.8 8.0 0.00 0.00 0.00 68 1006.1
20260903184900 26 270 3.2 12.9 0.00 0.00 0.00 67 1005.7
20260903183901 26 313 4.8 12.9 0.00 0.00 0.00 65 1005.7
20260903183402 26 297 3.2 12.9 0.00 0.00 0.00 66 1006.1
20260903182901 26 165 0.0 14.5 0.00 0.00 0.00 67 1006.1
20260903182402 26 222 4.8 16.1 0.00 0.00 0.00 66 1005.7
20260903181901 26 223 6.4 16.1 0.00 0.00 0.00 65 1005.7
20260903181402 26 222 4.8 11.3 0.00 0.00 0.00 65 1005.7
20260903180901 26 243 3.2 12.9 0.00 0.00 0.00 66 1005.4
20260903180402 26 276 8.0 12.9 0.00 0.00 0.00 66 1005.4
20260903175901 26 283 6.4 16.1 0.00 0.00 0.00 64 1005.7
20260903175402 25 315 4.8 16.1 0.00 0.00 0.00 66 1005.4
20260903174900 25 285 3.2 11.3 0.00 0.00 0.00 65 1005.4
20260903174403 26 281 3.2 14.5 0.00 0.00 0.00 65 1005.7
20260903173902 26 277 1.6 14.5 0.00 0.00 0.00 66 1005.7
20260903173402 25 305 6.4 17.7 0.00 0.00 0.00 65 1005.7
20260903172901 25 349 6.4 17.7 0.00 0.00 0.00 64 1005.7
20260903172402 25 334 3.2 9.7 0.00 0.00 0.00 66 1005.7
20260903171901 25 243 3.2 9.7 0.00 0.00 0.00 66 1005.7
20260903170403 25 283 9.7 14.5 0.00 0.00 0.00 64 1006.1
20260903165901 25 288 6.4 14.5 0.00 0.00 0.00 64 1006.1
20260903165402 24 326 0.0 17.7 0.00 0.00 0.00 64 1006.1
20260903164900 24 266 3.2 17.7 0.00 0.00 0.00 66 1006.1
20260903164403 24 282 8.0 14.5 0.00 0.00 0.00 64 1006.1
20260903162402 23 282 6.4 19.3 0.00 0.00 0.00 66 1006.9
20260903161859 23 270 1.6 14.5 0.00 0.00 0.00 66 1006.9
20260903161400 23 277 11.3 11.3 0.00 0.00 0.00 66 1006.9
20260903160858 23 186 0.0 9.7 0.00 0.00 0.00 67 1006.9
20260903160400 23 270 3.2 12.9 0.00 0.00 0.00 66 1006.9
20260903155858 23 322 4.8 12.9 0.00 0.00 0.00 68 1007.2
20260903155359 23 231 4.8 12.9 0.00 0.00 0.00 68 1006.9
20260903154359 22 270 3.2 9.7 0.00 0.00 0.00 68 1007.2
20260903153857 22 345 3.2 12.9 0.00 0.00 0.00 69 1006.9
20260903152358 22 329 6.4 14.5 0.00 0.00 0.00 68 1007.2
20260903151856 22 288 3.2 14.5 0.00 0.00 0.00 69 1007.2
20260903151357 22 270 3.2 9.7 0.00 0.00 0.00 71 1007.2
20260903150855 22 339 3.2 19.3 0.00 0.00 0.00 71 1007.5
20260903150358 22 322 4.8 19.3 0.00 0.00 0.00 72 1007.5
20260903145854 22 270 4.8 11.3 0.00 0.00 0.00 74 1007.2
20260903145356 21 270 3.2 11.3 0.00 0.00 0.00 73 1007.2
20260903144854 21 307 3.2 9.7 0.00 0.00 0.00 75 1007.2
20260903144355 21 312 0.0 12.9 0.00 0.00 0.00 74 1007.5
20260903143853 21 294 4.8 12.9 0.00 0.00 0.00 75 1007.5
20260903143353 21 228 3.2 12.9 0.00 0.00 0.00 75 1007.9
20260903142853 21 294 4.8 17.7 0.00 0.00 0.00 75 1007.5
20260903141854 21 270 3.2 14.5 0.00 0.00 0.00 76 1007.5
20260903141351 21 263 1.6 8.0 0.00 0.00 0.00 77 1007.9
20260903140852 21 270 1.6 8.0 0.00 0.00 0.00 77 1007.9
20260903140353 21 276 1.6 9.7 0.00 0.00 0.00 78 1008.2
20260903135333 21 320 3.2 11.3 0.00 0.00 0.00 79 1007.9
20260903134829 20 2 6.4 11.3 0.00 0.00 0.00 80 1007.9
20260903134330 20 258 3.2 6.4 0.00 0.00 0.00 80 1007.9
20260903133829 21 278 0.0 6.4 0.00 0.00 0.00 80 1008.2
20260903133331 20 345 4.8 6.4 0.00 0.00 0.00 83 1008.2
20260903132829 19 287 6.4 9.7 0.00 0.00 0.00 83 1007.9
20260903131829 18 0 0.0 6.4 0.00 0.00 0.00 86 1008.2
20260903131332 17 292 3.2 6.4 0.00 0.00 0.00 89 1007.9
20260903130829 17 285 1.6 6.4 0.00 0.00 0.00 91 1007.9
20260903125829 17 301 3.2 6.4 0.00 0.00 0.00 92 1008.2
20260903125332 16 287 4.8 8.0 0.00 0.00 0.00 92 1008.2
20260903124829 16 270 3.2 8.0 0.00 0.00 0.00 93 1007.9
20260903124332 16 0 0.0 6.4 0.00 0.00 0.00 93 1007.9
20260903123829 16 311 3.2 6.4 0.00 0.00 0.00 93 1007.9
20260903123330 16 254 0.0 6.4 0.00 0.00 0.00 94 1007.9
20260903122829 16 320 0.0 6.4 0.00 0.00 0.00 94 1008.5
20260903122332 16 261 0.0 6.4 0.00 0.00 0.00 94 1008.2
20260903121829 16 286 1.6 3.2 0.00 0.00 0.00 95 1008.2
20260903121331 15 251 0.0 6.4 0.00 0.00 0.00 94 1008.2
20260903120828 16 318 0.0 6.4 0.00 0.00 0.00 95 1008.5
20260903120333 15 257 0.0 6.4 0.00 0.00 0.00 95 1008.2
20260903115829 15 282 3.2 4.8 0.00 0.00 0.00 95 1008.2
20260903115333 15 279 3.2 8.0 0.00 0.00 0.00 96 1007.9
20260903114828 15 277 1.6 8.0 0.00 0.00 0.00 96 1008.2
20260903114331 15 276 0.0 4.8 0.00 0.00 0.00 96 1007.9
20260903113330 15 263 1.6 3.2 0.00 0.00 0.00 96 1008.2
20260903112829 15 286 0.0 3.2 0.00 0.00 0.00 96 1008.5
20260903112332 15 188 0.0 6.4 0.00 0.00 0.00 95 1008.2
20260903111829 15 270 3.2 8.0 0.00 0.00 0.00 95 1008.5
20260903111334 15 270 0.0 8.0 0.00 0.00 0.00 95 1007.9
20260903110829 15 279 0.0 3.2 0.00 0.00 0.00 95 1008.2
20260903110332 16 315 0.0 4.8 0.00 0.00 0.00 95 1008.2
20260903105828 16 270 1.6 6.4 0.00 0.00 0.00 95 1008.2
20260903105332 15 286 0.0 8.0 0.00 0.00 0.00 95 1008.2
20260903104829 16 292 0.0 8.0 0.00 0.00 0.00 95 1008.5
20260903104331 15 294 3.2 6.4 0.00 0.00 0.00 96 1008.2
20260903103829 15 270 0.0 3.2 0.00 0.00 0.00 96 1008.2
20260903102829 15 270 0.0 6.4 0.00 0.00 0.00 96 1008.2
20260903101331 15 270 0.0 4.8 0.00 0.00 0.00 96 1008.5
20260903100830 15 270 0.0 6.4 0.00 0.00 0.00 96 1008.2
20260903100330 15 279 0.0 6.4 0.00 0.00 0.00 96 1008.5
20260903095829 15 260 3.2 4.8 0.00 0.00 0.00 96 1008.5
20260903095337 15 270 0.0 4.8 0.00 0.00 0.00 96 1008.5
20260903094829 15 289 3.2 3.2 0.00 0.00 0.00 97 1008.2
20260903093830 15 285 0.0 3.2 0.00 0.00 0.00 97 1008.5
20260903093332 15 262 1.6 3.2 0.00 0.00 0.00 97 1008.2
20260903092829 15 270 0.0 3.2 0.00 0.00 0.00 97 1008.5
20260903091828 15 270 0.0 4.8 0.00 0.00 0.00 97 1008.2
20260903091331 15 279 0.0 4.8 0.00 0.00 0.00 97 1008.2
20260903090829 15 287 3.2 6.4 0.00 0.00 0.00 97 1008.2
20260903090331 15 258 0.0 6.4 0.00 0.00 0.00 96 1008.2
20260903085829 15 278 0.0 6.4 0.00 0.00 0.00 96 1008.2
20260903084828 15 336 0.0 4.8 0.00 0.00 0.00 98 1008.2
20260903084330 15 294 0.0 3.2 0.00 0.00 0.00 98 1008.2
20260903083829 15 278 1.6 3.2 0.00 0.00 0.00 98 1008.2
20260903083332 15 303 3.2 3.2 0.00 0.00 0.00 98 1008.2
20260903082829 15 278 1.6 3.2 0.00 0.00 0.00 98 1008.2
20260903082331 15 278 0.0 3.2 0.00 0.00 0.00 98 1008.5
20260903081828 15 255 1.6 3.2 0.00 0.00 0.00 98 1008.5
20260903081333 15 306 0.0 3.2 0.00 0.00 0.00 98 1008.5
20260903080829 15 278 0.0 1.6 0.00 0.00 0.00 98 1009.0
20260903080332 15 286 0.0 1.6 0.00 0.00 0.00 97 1008.5
20260903075829 15 276 0.0 1.6 0.00 0.00 0.00 97 1008.5
20260903075331 15 334 0.0 1.6 0.00 0.00 0.00 97 1008.5
20260903074828 15 270 0.0 1.6 0.00 0.00 0.00 97 1008.5
20260903074331 15 270 0.0 3.2 0.00 0.00 0.00 96 1008.5
20260903073828 15 300 0.0 3.2 0.00 0.00 0.00 96 1008.5
20260903073331 15 276 3.2 3.2 0.00 0.00 0.00 96 1008.5
20260903072331 15 299 0.0 4.8 0.00 0.00 0.00 96 1009.0
20260903071827 15 270 1.6 3.2 0.00 0.00 0.00 97 1008.5
20260903071329 15 255 0.0 3.2 0.00 0.00 0.00 96 1008.5
20260903070826 15 261 0.0 3.2 0.00 0.00 0.00 96 1008.5
20260903070329 15 270 0.0 3.2 0.00 0.00 0.00 96 1008.5
20260903065825 15 270 1.6 1.6 0.00 0.00 0.00 96 1008.5
20260903065327 15 270 0.0 3.2 0.00 0.00 0.00 96 1009.0
20260903064825 15 270 0.0 3.2 0.00 0.00 0.00 96 1009.0
20260903064328 15 270 0.0 1.6 0.00 0.00 0.00 95 1009.0
20260903063824 16 285 0.0 1.6 0.00 0.00 0.00 95 1009.0
20260903063327 16 262 1.6 3.2 0.00 0.00 0.00 94 1008.5
20260903062324 15 262 0.0 3.2 0.00 0.00 0.00 97 1009.0
20260903061823 15 270 0.0 3.2 0.00 0.00 0.00 98 1009.0
20260903061326 15 264 0.0 3.2 0.00 0.00 0.00 98 1009.0
20260903060822 15 270 0.0 1.6 0.00 0.00 0.00 98 1009.0
20260903060325 15 246 1.6 3.2 0.00 0.00 0.00 99 1009.0
20260903055822 15 270 0.0 3.2 0.00 0.00 0.00 99 1009.0
20260903055329 15 270 0.0 3.2 0.00 0.00 0.00 99 1009.0
20260903054821 15 254 0.0 3.2 0.00 0.00 0.00 99 1009.3
20260903054322 15 270 0.0 1.6 0.00 0.00 0.00 99 1009.3
20260903053820 15 270 0.0 1.6 0.00 0.00 0.00 99 1009.0
20260903053323 15 255 0.0 1.6 0.00 0.00 0.00 99 1009.0
20260903052325 15 261 0.0 0.0 0.00 0.00 0.00 99 1009.3
20260903051820 15 261 0.0 0.0 0.00 0.00 0.00 98 1009.3
20260903051322 15 261 0.0 0.0 0.00 0.00 0.00 98 1009.3
20260903050819 15 261 0.0 0.0 0.00 0.00 0.00 98 1009.7
20260903045819 15 261 0.0 0.0 0.00 0.00 0.00 98 1009.0
20260903044322 15 261 0.0 0.0 0.00 0.00 0.00 98 1009.3
20260903043817 15 261 0.0 0.0 0.00 0.00 0.00 98 1009.3
20260903043322 15 261 0.0 0.0 0.00 0.00 0.00 97 1009.3
20260903042816 15 261 0.0 0.0 0.00 0.00 0.00 97 1009.7
20260903042320 15 261 0.0 0.0 0.00 0.00 0.00 97 1009.3
20260903041816 15 261 0.0 0.0 0.00 0.00 0.00 97 1009.7
20260903041320 15 261 0.0 0.0 0.00 0.00 0.00 96 1009.7
20260903040815 15 188 0.0 0.0 0.00 0.00 0.00 96 1009.3
20260903040320 15 188 0.0 0.0 0.00 0.00 0.00 96 1009.7
20260903035814 15 188 0.0 0.0 0.00 0.00 0.00 96 1009.7
20260903035319 16 188 0.0 0.0 0.00 0.00 0.00 96 1009.7
20260903034814 16 188 0.0 0.0 0.00 0.00 0.00 95 1009.7
20260903034320 16 188 0.0 0.0 0.00 0.00 0.00 95 1009.7
20260903033813 16 188 0.0 0.0 0.00 0.00 0.00 95 1009.7
20260903033322 16 188 0.0 0.0 0.00 0.00 0.00 95 1009.3
20260903032813 16 188 0.0 0.0 0.00 0.00 0.00 95 1009.7
20260903032318 16 188 0.0 0.0 0.00 0.00 0.00 94 1009.3
20260903031813 16 188 0.0 0.0 0.00 0.00 0.00 94 1009.7
20260903031315 16 188 0.0 0.0 0.00 0.00 0.00 94 1009.7
20260903030315 16 188 0.0 0.0 0.00 0.00 0.00 93 1009.7
20260903025811 16 188 0.0 0.0 0.00 0.00 0.00 93 1009.7
20260903025314 16 188 0.0 0.0 0.00 0.00 0.00 93 1009.3
20260903024810 16 188 0.0 0.0 0.00 0.00 0.00 92 1009.7
20260903023314 17 188 0.0 0.0 0.00 0.00 0.00 91 1009.7
20260903022809 17 188 0.0 0.0 0.00 0.00 0.00 91 1009.3
20260903022310 17 188 0.0 0.0 0.00 0.00 0.00 90 1009.3
20260903021808 17 188 0.0 0.0 0.00 0.00 0.00 90 1009.7
20260903021311 17 188 0.0 0.0 0.00 0.00 0.00 90 1009.7
20260903020808 17 188 0.0 0.0 0.00 0.00 0.00 89 1009.3
20260903015808 17 188 0.0 0.0 0.00 0.00 0.00 88 1009.7
20260903014807 17 188 0.0 0.0 0.00 0.00 0.00 87 1009.3
20260903014309 17 188 0.0 0.0 0.00 0.00 0.00 87 1009.3